Volver al catálogo

NADEZHDA 6

ActivoComunicacionesSSO
NORAD 26384·PAYLOAD·🇷🇺 Russia

Lanzado Jun 28, 2000 desde Plesetsk Cosmodrome

Loading…

Próximos Pases (próximas 24 horas)

TLE

ActualizadoSource: Space-Track

Época: Sep 14, 2026, 09:03 UTC

1 26384U 00033A   26257.37771498  .00000543  00000-0  95180-4 0  9996
2 26384  97.8531 229.4269 0014456  69.2917 290.9838 14.71461573401302

Sigue NADEZHDA 6 en tiempo real con AllMySat

Download on the App Store